GAOFEN-11 01

Last updated on Thu Oct 30 2025 00:02:32 GMT+0000 (Coordinated Universal Time)

1 43585U 18063A 25302.48414872 .00018756 00000+0 36625-3 0 9994 2 43585 97.1621 5.8288 0007408 102.1295 258.0786 15.47494000404573
UTC large
Height (km)
Speed (km/s)
/
Latitude / Longitude
Inclination (degrees)
Orbital Period (minutes)
Azimuth
Elevation
Range (km)
Doppler Factor

Next 0 passes for location: London (51.5072 / 0.1276)

Sorry there are no passes over London.